IUS R/B(2), 26883

Orbit data source: Space-Track

IUS R/B(2), 26883 is space debris in GEO originally from a launch on Mon, 06 Aug 2001 UTC launched from the Air Force Eastern Test Range (AFETR). Debris objects in space refer to the collection of defunct objects orbiting the Earth. Examples of debris include non-operational satellites, rocket bodies, and fragments generated from explosions, collisions, or faulty payload assembly.

Loading next visibility...
IUS R/B(2) details
Identifier
26883, 2001-033D
Orbit
GEO
Last TLE update1 day ago
Origin
Flag of USUSAF SMC (US)
ManufacturerPW CSD
Mission Orbus 6E) (Titan IVB IUS)"
Bus & MotorORBUS 6, ORBUS 6
Mass1,079 kg wet, 1,079 kg dry
Launch date (UTC)
2001-08-06 (23 years ago)
Launch vehicleUnknown
Launch site
Air Force Eastern Test Range (AFETR)
Object type
Payload
Rocket body
Debris
Shape & HBRCyl, Unknown HBR
Radar Cross Section8.086 m²

Expand to show TLE details & history

TLE from 1 day ago
0 IUS R/B(2)
1 26883U 01033D   24360.18843055  .00000115  00000-0  00000-0 0  9990
2 26883  12.3965  20.3631 0005507   9.3274 350.6831  0.99892756 20409
Epoch: 2024-12-25T04:31Z
Definitive object data (Epoch: 2024-12-25T04:31:20.399Z)
Latitude0.00001°
Longitude-141.6637°
Altitude35,869.82 km
Speed3.072 km/s
True Right ascension01h 21m 25s
True Declination0° 00' 00"
Sunlit
Object was in daylight at TLE epoch
Visualization TLE readout
Latitude12.42174°
Longitude-51.62241°
Altitude35,888.071 km
Speed3.071 km/s
Apparent Right ascension07h 03m 05s
Apparent Declination7° 36' 09"
Sunlit
Object is in daylight
Visualization observer readout
Local Sidereal Time09:54:18
Azimuth241.534° WSW
Elevation39.992°
Doppler factor1
Orbital elements
Apogee altitude35,917.462 km
Perigee altitude35,870.903 km
Semi-major axis42,272.319 km
Eccentricity0.0005507
Inclination12.3965°
RAAN20.3631°
Arg. of periapsis9.3274°
True anomaly350.67288°
Mean anomaly350.6831°
Eccentric anomaly350.67799°
Mean motion0.24972 °/min
BSTARUnknown
Orbital period1441.6 mins
Loading historical data...
26883 neighbors
Authenticating...
Loading maneuver chart data...
Loading historical data...
Loading historical data...
Loading historical data...
Loading historical data...
Loading historical data...
Loading historical data...
Loading historical data...
Other satellites on launch #33 in the year 2001 (2001-08-06 UTC)

IUS R/B(2) Visibility forecast

Observer location: undefined°, undefined

Span
Click to sort rows by Start time (UTC) header in descending order
Start Az.
Max El. time (UTC)
Max El. Az.
Max El.
End time (UTC)
End Az.
1440 mins2024-12-26 10:33:06.160Z241.516° WSW2024-12-26 10:56:06.160Z241.332° WSW32.742°2024-12-27 10:33:06.160Z242.911° WSW
|